Time,TemperatureF,DewpointF,PressureIn,WindDirection,WindDirectionDegrees,WindSpeedMPH,WindSpeedGustMPH,Humidity,HourlyPrecipIn,Conditions,Clouds,dailyrainin,SoftwareType,DateUTC
2013-01-29 00:02:00,49.6,38.8,30.35,SW,225,2.0,4.0,66,0.00,,,-99.99,meteohub,2013-01-28 23:02:00,
2013-01-29 00:18:00,49.5,39.4,30.36,WSW,248,3.0,5.0,68,0.00,,,0.00,meteohub,2013-01-28 23:18:00,
2013-01-29 00:34:00,50.0,39.2,30.36,WSW,248,1.0,3.0,66,0.00,,,0.00,meteohub,2013-01-28 23:34:00,
2013-01-29 00:49:00,50.7,38.8,30.35,WSW,248,4.0,7.0,63,0.00,,,0.00,meteohub,2013-01-28 23:49:00,
2013-01-29 01:05:00,50.4,39.4,30.35,NW,315,2.0,5.0,65,0.00,,,0.00,meteohub,2013-01-29 00:05:00,
2013-01-29 01:20:00,50.2,38.8,30.35,NW,315,3.0,4.0,65,0.00,,,0.00,meteohub,2013-01-29 00:20:00,
2013-01-29 01:35:00,49.3,38.1,30.35,NW,315,0.0,2.0,65,0.00,,,0.00,meteohub,2013-01-29 00:35:00,
2013-01-29 01:51:00,47.5,37.6,30.35,NE,45,2.0,4.0,68,0.00,,,0.00,meteohub,2013-01-29 00:51:00,
2013-01-29 02:06:00,45.7,37.4,30.35,NE,45,2.0,5.0,72,0.00,,,0.00,meteohub,2013-01-29 01:06:00,
2013-01-29 02:22:00,46.0,37.6,30.35,ENE,68,0.0,0.0,72,0.00,,,0.00,meteohub,2013-01-29 01:22:00,
2013-01-29 02:37:00,46.4,37.9,30.36,NE,45,0.0,2.0,72,0.00,,,0.00,meteohub,2013-01-29 01:37:00,
2013-01-29 02:53:00,46.4,37.9,30.36,NE,45,2.0,4.0,72,0.00,,,0.00,meteohub,2013-01-29 01:53:00,
2013-01-29 03:08:00,42.6,36.3,30.36,East,90,1.0,5.0,78,0.00,,,0.00,meteohub,2013-01-29 02:08:00,
2013-01-29 03:24:00,43.3,36.9,30.36,NE,45,1.0,2.0,78,0.00,,,0.00,meteohub,2013-01-29 02:24:00,
2013-01-29 03:39:00,43.5,37.0,30.36,ENE,68,1.0,3.0,78,0.00,,,0.00,meteohub,2013-01-29 02:39:00,
2013-01-29 03:55:00,44.2,37.2,30.35,ENE,68,1.0,2.0,76,0.00,,,0.00,meteohub,2013-01-29 02:55:00,
2013-01-29 04:10:00,44.8,37.4,30.35,ENE,68,0.0,0.0,75,0.00,,,0.00,meteohub,2013-01-29 03:10:00,
2013-01-29 04:25:00,45.3,37.4,30.35,ENE,68,0.0,0.0,73,0.00,,,0.00,meteohub,2013-01-29 03:25:00,
2013-01-29 04:40:00,44.6,37.4,30.36,ENE,68,0.0,2.0,75,0.00,,,0.00,meteohub,2013-01-29 03:40:00,
2013-01-29 04:55:00,43.5,36.9,30.37,ENE,68,0.0,1.0,77,0.00,,,0.00,meteohub,2013-01-29 03:55:00,
2013-01-29 05:11:00,43.3,36.7,30.37,ENE,68,0.0,0.0,77,0.00,,,0.00,meteohub,2013-01-29 04:11:00,
2013-01-29 05:26:00,43.3,36.9,30.38,ENE,68,0.0,1.0,77,0.00,,,0.00,meteohub,2013-01-29 04:26:00,
2013-01-29 05:42:00,43.5,36.9,30.37,ENE,68,0.0,0.0,77,0.00,,,0.00,meteohub,2013-01-29 04:42:00,
2013-01-29 05:57:00,44.4,37.4,30.37,ENE,68,0.0,0.0,75,0.00,,,0.00,meteohub,2013-01-29 04:57:00,
2013-01-29 06:12:00,45.9,38.1,30.37,ENE,68,2.0,2.0,74,0.00,,,0.00,meteohub,2013-01-29 05:12:00,
2013-01-29 06:29:00,43.5,36.9,30.37,ENE,68,0.0,2.0,76,0.00,,,0.00,meteohub,2013-01-29 05:29:00,
2013-01-29 06:44:00,42.4,36.7,30.37,ENE,68,0.0,0.0,80,0.00,,,0.00,meteohub,2013-01-29 05:44:00,
2013-01-29 06:59:00,42.6,36.9,30.38,ENE,68,0.0,0.0,80,0.00,,,0.00,meteohub,2013-01-29 05:59:00,
2013-01-29 07:15:00,42.4,36.7,30.39,ENE,68,1.0,1.0,80,0.00,,,0.00,meteohub,2013-01-29 06:15:00,
2013-01-29 07:31:00,42.6,36.9,30.38,ENE,68,0.0,0.0,80,0.00,,,0.00,meteohub,2013-01-29 06:31:00,
2013-01-29 07:46:00,43.3,37.6,30.39,ENE,68,0.0,1.0,80,0.00,,,0.00,meteohub,2013-01-29 06:46:00,
2013-01-29 08:02:00,43.9,37.8,30.39,ENE,68,0.0,1.0,79,0.00,,,0.00,meteohub,2013-01-29 07:02:00,
2013-01-29 08:17:00,44.2,37.8,30.39,ENE,68,0.0,0.0,78,0.00,,,0.00,meteohub,2013-01-29 07:17:00,
2013-01-29 08:32:00,45.1,38.3,30.39,ENE,68,0.0,0.0,77,0.00,,,0.00,meteohub,2013-01-29 07:32:00,
2013-01-29 08:47:00,46.6,39.0,30.40,ENE,68,2.0,2.0,75,0.00,,,0.00,meteohub,2013-01-29 07:47:00,
2013-01-29 09:03:00,46.4,39.2,30.40,ENE,68,0.0,0.0,75,0.00,,,0.00,meteohub,2013-01-29 08:03:00,
2013-01-29 09:18:00,46.0,39.2,30.40,ENE,68,0.0,1.0,77,0.00,,,0.00,meteohub,2013-01-29 08:18:00,
2013-01-29 09:34:00,46.0,39.0,30.40,ENE,68,0.0,1.0,76,0.00,,,0.00,meteohub,2013-01-29 08:34:00,
2013-01-29 09:49:00,48.9,42.1,30.41,ENE,68,0.0,2.0,77,0.00,,,0.00,meteohub,2013-01-29 08:49:00,
2013-01-29 10:06:00,51.3,43.9,30.41,South,180,2.0,3.0,75,0.00,,,0.00,meteohub,2013-01-29 09:06:00,
2013-01-29 10:21:00,52.5,45.9,30.42,SW,225,2.0,6.0,77,0.00,,,0.00,meteohub,2013-01-29 09:21:00,
2013-01-29 10:37:00,53.6,47.3,30.41,SW,225,5.0,7.0,79,0.00,,,0.00,meteohub,2013-01-29 09:37:00,
2013-01-29 10:52:00,54.0,47.7,30.42,SSW,203,4.0,6.0,79,0.00,,,0.00,meteohub,2013-01-29 09:52:00,
2013-01-29 11:08:00,54.5,47.8,30.42,South,180,3.0,8.0,78,0.00,,,0.00,meteohub,2013-01-29 10:08:00,
2013-01-29 11:23:00,55.0,48.6,30.42,SW,225,3.0,7.0,79,0.00,,,0.00,meteohub,2013-01-29 10:23:00,
2013-01-29 11:39:00,55.2,48.6,30.43,SSW,203,6.0,9.0,78,0.00,,,0.00,meteohub,2013-01-29 10:39:00,
2013-01-29 11:54:00,55.6,48.9,30.42,WSW,248,5.0,8.0,78,0.00,,,0.00,meteohub,2013-01-29 10:54:00,
2013-01-29 12:09:00,55.8,48.7,30.41,SW,225,5.0,9.0,77,0.00,,,0.00,meteohub,2013-01-29 11:09:00,
2013-01-29 12:24:00,55.9,49.3,30.41,West,270,9.0,12.0,78,0.00,,,0.00,meteohub,2013-01-29 11:24:00,
2013-01-29 12:40:00,56.8,48.6,30.41,SW,225,6.0,9.0,73,0.00,,,0.00,meteohub,2013-01-29 11:40:00,
2013-01-29 12:55:00,57.0,48.0,30.40,SW,225,3.0,9.0,72,0.00,,,0.00,meteohub,2013-01-29 11:55:00,
2013-01-29 13:10:00,57.0,47.7,30.40,WSW,248,5.0,10.0,71,0.00,,,0.00,meteohub,2013-01-29 12:10:00,
2013-01-29 13:26:00,57.4,48.4,30.39,WSW,248,4.0,9.0,72,0.00,,,0.00,meteohub,2013-01-29 12:26:00,
2013-01-29 13:41:00,57.4,49.5,30.38,SW,225,4.0,8.0,75,0.00,,,0.00,meteohub,2013-01-29 12:41:00,
2013-01-29 13:56:00,57.6,49.1,30.38,SW,225,4.0,10.0,73,0.00,,,0.00,meteohub,2013-01-29 12:56:00,
2013-01-29 14:12:00,57.4,49.8,30.37,WSW,248,2.0,10.0,76,0.00,,,0.00,meteohub,2013-01-29 13:12:00,
2013-01-29 14:27:00,57.6,48.9,30.36,SW,225,4.0,11.0,73,0.00,,,0.00,meteohub,2013-01-29 13:27:00,
2013-01-29 14:43:00,57.6,50.0,30.36,SSW,203,4.0,9.0,76,0.00,,,0.00,meteohub,2013-01-29 13:43:00,
2013-01-29 14:58:00,57.4,49.5,30.36,SSW,203,5.0,9.0,75,0.00,,,0.00,meteohub,2013-01-29 13:58:00,
2013-01-29 15:14:00,57.4,49.1,30.36,WSW,248,4.0,8.0,74,0.00,,,0.00,meteohub,2013-01-29 14:14:00,
2013-01-29 15:29:00,56.8,48.9,30.37,SSW,203,4.0,10.0,75,0.00,,,0.00,meteohub,2013-01-29 14:29:00,
2013-01-29 15:44:00,56.5,48.6,30.37,WSW,248,6.0,9.0,74,0.00,,,0.00,meteohub,2013-01-29 14:44:00,
2013-01-29 15:59:00,55.6,49.1,30.37,South,180,3.0,7.0,79,0.00,,,0.00,meteohub,2013-01-29 14:59:00,
2013-01-29 16:15:00,55.0,47.8,30.37,SSW,203,2.0,8.0,76,0.00,,,0.00,meteohub,2013-01-29 15:15:00,
2013-01-29 16:31:00,55.2,48.2,30.37,SW,225,5.0,8.0,77,0.00,,,0.00,meteohub,2013-01-29 15:31:00,
2013-01-29 16:46:00,55.9,48.9,30.36,SW,225,3.0,7.0,77,0.00,,,0.00,meteohub,2013-01-29 15:46:00,
2013-01-29 17:02:00,55.6,48.9,30.36,SW,225,3.0,7.0,78,0.00,,,0.00,meteohub,2013-01-29 16:02:00,
2013-01-29 17:18:00,54.9,48.7,30.36,SW,225,4.0,8.0,80,0.00,,,0.00,meteohub,2013-01-29 16:18:00,
2013-01-29 17:33:00,54.9,49.1,30.36,SW,225,4.0,7.0,81,0.00,,,0.00,meteohub,2013-01-29 16:33:00,
2013-01-29 17:49:00,54.1,49.1,30.37,SW,225,3.0,8.0,83,0.00,,,0.00,meteohub,2013-01-29 16:49:00,
2013-01-29 18:04:00,53.2,48.9,30.37,SW,225,2.0,5.0,85,0.00,,,0.00,meteohub,2013-01-29 17:04:00,
2013-01-29 18:20:00,52.3,48.2,30.37,SW,225,2.0,3.0,86,0.00,,,0.00,meteohub,2013-01-29 17:20:00,
2013-01-29 18:35:00,52.0,48.2,30.37,WSW,248,1.0,3.0,87,0.00,,,0.00,meteohub,2013-01-29 17:35:00,
2013-01-29 18:51:00,51.4,47.5,30.37,WSW,248,0.0,3.0,86,0.00,,,0.00,meteohub,2013-01-29 17:51:00,
2013-01-29 19:06:00,50.9,46.9,30.38,WSW,248,0.0,0.0,86,0.00,,,0.00,meteohub,2013-01-29 18:06:00,
2013-01-29 19:22:00,50.4,46.6,30.38,WSW,248,0.0,0.0,87,0.00,,,0.00,meteohub,2013-01-29 18:22:00,
2013-01-29 19:37:00,50.4,47.3,30.38,WSW,248,0.0,2.0,89,0.00,,,0.00,meteohub,2013-01-29 18:37:00,
2013-01-29 19:53:00,50.5,47.7,30.38,SW,225,2.0,3.0,90,0.00,,,0.00,meteohub,2013-01-29 18:53:00,
2013-01-29 20:08:00,50.4,47.5,30.38,SW,225,2.0,3.0,90,0.00,,,0.00,meteohub,2013-01-29 19:08:00,
2013-01-29 20:24:00,50.4,47.5,30.39,SW,225,1.0,3.0,90,0.00,,,0.00,meteohub,2013-01-29 19:24:00,
2013-01-29 20:39:00,50.0,47.5,30.39,WSW,248,2.0,4.0,91,0.00,,,0.00,meteohub,2013-01-29 19:39:00,
2013-01-29 20:55:00,49.8,47.3,30.39,WSW,248,0.0,0.0,91,0.00,,,0.00,meteohub,2013-01-29 19:55:00,
2013-01-29 21:10:00,49.5,47.3,30.38,WSW,248,2.0,4.0,92,0.00,,,0.00,meteohub,2013-01-29 20:10:00,
2013-01-29 21:25:00,49.5,47.3,30.38,West,270,1.0,2.0,92,0.00,,,0.00,meteohub,2013-01-29 20:25:00,
2013-01-29 21:41:00,49.3,46.8,30.38,West,270,2.0,5.0,91,0.00,,,0.00,meteohub,2013-01-29 20:41:00,
2013-01-29 21:56:00,48.9,46.4,30.38,West,270,2.0,3.0,91,0.00,,,0.00,meteohub,2013-01-29 20:56:00,
2013-01-29 22:11:00,48.9,46.0,30.38,West,270,0.0,3.0,90,0.00,,,0.00,meteohub,2013-01-29 21:11:00,
2013-01-29 22:26:00,48.7,46.2,30.38,West,270,0.0,2.0,91,0.00,,,0.00,meteohub,2013-01-29 21:26:00,
2013-01-29 22:42:00,48.6,45.7,30.38,West,270,0.0,0.0,90,0.00,,,0.00,meteohub,2013-01-29 21:42:00,
2013-01-29 22:58:00,47.5,45.0,30.38,NE,45,0.0,2.0,91,0.00,,,0.00,meteohub,2013-01-29 21:58:00,
2013-01-29 23:14:00,46.9,44.4,30.38,NE,45,0.0,0.0,91,0.00,,,0.00,meteohub,2013-01-29 22:14:00,
2013-01-29 23:29:00,46.0,44.1,30.39,NE,45,0.0,0.0,93,0.00,,,0.00,meteohub,2013-01-29 22:29:00,
2013-01-29 23:45:00,46.0,43.9,30.39,NE,45,0.0,0.0,92,0.00,,,0.00,meteohub,2013-01-29 22:45:00,